This demonstration page uses our WeatherBlox Daily Observations layout. Learn more.

Left ArrowRight Arrow

44.8408, -93.29828

Hourly Observations for March 29, 2020

Temp ( °F °C ) Dew Point ( °F °C ) Humidity (%) Winds ( mph kmh ) Pressure ( in mb ) Visibility ( mi km ) Precip ( " mm )
12:53 am 00:53 Cloudy with Drizzle 39 3.9 37 2.8 93 93 NNE 16 26 29.37 995 4 6 0.04 1.02
1:08 am 01:08 Cloudy with Drizzle 39 3.9 37 2.8 93 93 N 15 24 29.39 995 3 4 0.01 0.25
1:21 am 01:21 Cloudy with Drizzle 39 3.9 37 2.8 93 93 N 17 28 29.39 995 3 4 0.03 0.76
1:38 am 01:38 Cloudy with Drizzle 39 3.9 37 2.8 93 93 N 17 28 29.38 995 3 5 0.08 2.03
1:53 am 01:53 Cloudy with Light Rain 38 3.3 36 2.2 93 93 N 18 30 29.36 994 4 6 0.10 2.54
2:25 am 02:25 Windy with Snow Likely 36 2.2 34 1.1 93 93 N 20 31 29.39 995 3 4 0.05 1.27
2:53 am 02:53 Cloudy with Light Snow 35 1.7 34 1.1 96 96 NNW 18 30 29.36 994 3 5 0.05 1.27
3:04 am 03:04 Cloudy with Light Snow 35 1.7 33 0.6 93 93 NNW 18 30 29.39 995 3 4 0.00 0.00
3:15 am 03:15 Cloudy with Light Snow 35 1.7 33 0.6 93 93 NNW 18 30 29.39 995 3 5 0.00 0.00
3:53 am 03:53 Cloudy with Light Rain/Snow 34 1.1 32 0 92 92 N 20 31 29.37 995 4 6 0.00 0.00
4:53 am 04:53 Cloudy with Light Rain/Snow 33 0.6 31 -0.6 92 92 N 21 33 29.40 996 4 6 0.01 0.25
5:11 am 05:11 Cloudy with Light Rain/Snow 33 0.6 31 -0.6 92 92 N 20 31 29.43 997 3 4 0.01 0.25
5:30 am 05:30 Cloudy with Light Snow 33 0.6 31 -0.6 92 92 N 17 28 29.44 997 3 4 0.02 0.51
5:34 am 05:34 Windy with Snow Likely 33 0.6 31 -0.6 92 92 N 20 31 29.45 997 3 5 0.02 0.51
5:53 am 05:53 Cloudy with Light Snow 34 1.1 32 0 92 92 NNW 17 28 29.44 997 6 10 0.03 0.76
6:25 am 06:25 Cloudy 35 1.7 32 0 89 89 N 18 30 29.48 998 9 14 0.00 0.00
6:53 am 06:53 Cloudy with Light Rain 35 1.7 33 0.6 93 93 NNW 17 28 29.48 998 5 8 0.01 0.25
7:53 am 07:53 Cloudy 35 1.7 33 0.6 93 93 NNW 18 30 29.53 1000 8 13 0.00 0.00
8:53 am 08:53 Cloudy with Light Rain 36 2.2 33 0.6 89 89 N 18 30 29.57 1001 6 10 0.00 0.00
9:53 am 09:53 Cloudy with Light Rain 36 2.2 34 1.1 93 93 NNW 17 28 29.61 1003 9 14 0.01 0.25
10:53 am 10:53 Cloudy 39 3.9 35 1.7 86 86 NNW 21 33 29.65 1004 10 16 0.01 0.25
11:53 am 11:53 Cloudy 39 3.9 35 1.7 86 86 NNW 22 35 29.69 1005 10 16 0.00 0.00
12:53 pm 12:53 Cloudy 41 5 37 2.8 86 86 NNW 17 28 29.72 1007 10 16 0.00 0.00
1:53 pm 13:53 Cloudy with Light Rain 42 5.6 37 2.8 82 82 NNW 17 28 29.76 1008 10 16 0.00 0.00
2:53 pm 14:53 Cloudy with Light Rain 43 6.1 36 2.2 76 76 NNW 22 35 29.80 1009 10 16 0.00 0.00
3:22 pm 15:22 Cloudy with Light Rain 44 6.7 34 1.1 68 68 N 22 35 29.83 1010 10 16 0.00 0.00
3:53 pm 15:53 Cloudy 45 7.2 34 1.1 66 66 N 21 33 29.85 1011 10 16 0.00 0.00
4:53 pm 16:53 Cloudy 48 8.9 33 0.6 56 56 NW 9 15 29.89 1012 10 16 0.00 0.00
5:53 pm 17:53 Mostly Cloudy 49 9.4 34 1.1 56 56 N 3 6 29.92 1013 10 16 0.00 0.00
6:53 pm 18:53 Mostly Cloudy 47 8.3 34 1.1 61 61 ENE 5 7 29.95 1014 10 16 0.00 0.00
7:53 pm 19:53 Mostly Cloudy 46 7.8 34 1.1 63 63 Calm 29.98 1015 10 16 0.00 0.00
8:53 pm 20:53 Mostly Cloudy 44 6.7 31 -0.6 60 60 W 6 9 30.01 1016 10 16 0.00 0.00
9:53 pm 21:53 Mostly Cloudy 43 6.1 26 -3.3 51 51 NW 8 13 30.04 1017 10 16 0.00 0.00
10:53 pm 22:53 Partly Cloudy 42 5.6 23 -5 47 47 NW 8 13 30.06 1018 10 16 0.00 0.00
11:53 pm 23:53 Partly Cloudy 43 6.1 23 -5 45 45 NW 8 13 30.08 1019 10 16 0.00 0.00

Powered by AerisWeather